Time,TemperatureF,DewpointF,PressureIn,WindDirection,WindDirectionDegrees,WindSpeedMPH,WindSpeedGustMPH,Humidity,HourlyPrecipIn,Conditions,Clouds,dailyrainin,SoftwareType,DateUTC
2013-04-28 00:01:00,54.7,52.9,30.20,NW,319,0.0,0.0,94,0.00,,OVC070,0.00,VWS V14.00,2013-04-28 04:01:00,
2013-04-28 00:06:00,54.5,52.8,30.20,NW,319,0.0,0.0,94,0.00,,OVC070,0.00,VWS V14.00,2013-04-28 04:06:00,
2013-04-28 00:11:00,54.0,52.3,30.20,NW,319,0.0,0.0,94,0.00,,OVC070,0.00,VWS V14.00,2013-04-28 04:11:00,
2013-04-28 00:16:00,55.0,53.3,30.20,NW,319,0.0,0.0,94,0.00,,OVC070,0.00,VWS V14.00,2013-04-28 04:16:00,
2013-04-28 00:21:00,53.5,51.8,30.20,NW,319,0.0,0.0,94,0.00,,OVC070,0.00,VWS V14.00,2013-04-28 04:21:00,
2013-04-28 00:26:00,54.1,52.4,30.20,NW,319,0.0,0.0,94,0.00,,OVC070,0.00,VWS V14.00,2013-04-28 04:26:00,
2013-04-28 00:31:00,54.5,53.0,30.20,NW,319,0.0,0.0,94,0.00,,OVC070,0.00,VWS V14.00,2013-04-28 04:31:00,
2013-04-28 00:36:00,54.5,53.1,30.20,NW,319,0.0,0.0,95,0.00,,OVC070,0.00,VWS V14.00,2013-04-28 04:36:00,
2013-04-28 00:41:00,53.8,52.5,30.20,NW,319,0.0,0.0,95,0.00,,OVC070,0.00,VWS V14.00,2013-04-28 04:41:00,
2013-04-28 00:46:00,54.1,52.8,30.20,NW,319,0.0,0.0,96,0.00,,OVC070,0.00,VWS V14.00,2013-04-28 04:46:00,
2013-04-28 00:51:00,53.6,52.4,30.20,NW,319,0.0,0.0,96,0.00,,OVC070,0.00,VWS V14.00,2013-04-28 04:51:00,
2013-04-28 00:56:00,54.0,52.8,30.20,NW,319,0.0,0.0,96,0.00,,OVC070,0.00,VWS V14.00,2013-04-28 04:56:00,
2013-04-28 01:01:00,54.1,52.9,30.20,NW,319,0.0,0.0,96,0.00,,OVC070,0.00,VWS V14.00,2013-04-28 05:01:00,
2013-04-28 01:06:00,54.6,53.4,30.20,NW,319,0.0,0.0,96,0.00,,OVC070,0.00,VWS V14.00,2013-04-28 05:06:00,
2013-04-28 01:11:00,55.0,53.8,30.20,NW,319,0.0,0.0,96,0.00,,OVC070,0.00,VWS V14.00,2013-04-28 05:11:00,
2013-04-28 01:16:00,54.4,53.2,30.20,NW,319,0.0,0.0,96,0.00,,OVC070,0.00,VWS V14.00,2013-04-28 05:16:00,
2013-04-28 01:21:00,54.1,52.9,30.20,NW,319,0.0,0.0,96,0.00,,OVC070,0.00,VWS V14.00,2013-04-28 05:21:00,
2013-04-28 01:26:00,53.7,52.6,30.20,NW,319,0.0,0.0,96,0.00,,OVC070,0.00,VWS V14.00,2013-04-28 05:26:00,
2013-04-28 01:31:00,54.4,53.3,30.20,NW,319,0.0,0.0,96,0.00,,OVC070,0.00,VWS V14.00,2013-04-28 05:31:00,
2013-04-28 01:36:00,54.0,52.8,30.20,NW,319,0.0,0.0,96,0.00,,OVC070,0.00,VWS V14.00,2013-04-28 05:36:00,
2013-04-28 01:41:00,54.2,53.0,30.20,NW,319,0.0,0.0,96,0.00,,OVC070,0.00,VWS V14.00,2013-04-28 05:41:00,
2013-04-28 01:46:00,53.9,52.6,30.20,NW,319,0.0,0.0,95,0.00,,OVC075,0.00,VWS V14.00,2013-04-28 05:46:00,
2013-04-28 01:51:00,54.0,52.7,30.20,NW,319,0.0,0.0,95,0.00,,OVC075,0.00,VWS V14.00,2013-04-28 05:51:00,
2013-04-28 01:56:00,54.5,53.2,30.19,NW,319,0.0,0.0,95,0.00,,OVC075,0.00,VWS V14.00,2013-04-28 05:56:00,
2013-04-28 02:01:00,53.8,52.5,30.20,NW,319,0.0,0.0,96,0.00,,OVC075,0.00,VWS V14.00,2013-04-28 06:01:00,
2013-04-28 02:06:00,54.3,53.1,30.19,NW,319,0.0,0.0,96,0.00,,OVC075,0.00,VWS V14.00,2013-04-28 06:06:00,
2013-04-28 02:11:00,53.5,52.4,30.19,NW,319,0.0,0.0,96,0.00,,OVC075,0.00,VWS V14.00,2013-04-28 06:11:00,
2013-04-28 02:16:00,54.9,53.8,30.19,NW,319,0.0,0.0,96,0.00,,OVC075,0.00,VWS V14.00,2013-04-28 06:16:00,
2013-04-28 02:21:00,54.0,53.0,30.19,NW,319,0.0,0.0,96,0.00,,OVC075,0.00,VWS V14.00,2013-04-28 06:21:00,
2013-04-28 02:26:00,53.7,52.8,30.19,NW,319,0.0,0.0,97,0.00,,OVC075,0.00,VWS V14.00,2013-04-28 06:26:00,
2013-04-28 02:31:00,54.3,53.5,30.19,NW,319,0.0,0.0,97,0.00,,OVC075,0.00,VWS V14.00,2013-04-28 06:31:00,
2013-04-28 02:36:00,53.9,53.3,30.18,NW,319,0.0,0.0,98,0.00,,OVC075,0.00,VWS V14.00,2013-04-28 06:36:00,
2013-04-28 02:41:00,54.6,54.0,30.18,NW,319,0.0,0.0,98,0.00,,OVC075,0.00,VWS V14.00,2013-04-28 06:41:00,
2013-04-28 02:46:00,53.9,53.3,30.17,NW,319,0.0,0.0,98,0.00,,OVC090,0.00,VWS V14.00,2013-04-28 06:46:00,
2013-04-28 02:51:00,53.9,53.3,30.17,NW,319,0.0,0.0,98,0.00,,OVC090,0.00,VWS V14.00,2013-04-28 06:51:00,
2013-04-28 02:56:00,53.9,53.4,30.17,NW,319,0.0,0.0,98,0.00,,OVC090,0.00,VWS V14.00,2013-04-28 06:56:00,
2013-04-28 03:01:00,53.3,52.9,30.17,NW,319,0.0,0.0,98,0.00,,OVC090,0.00,VWS V14.00,2013-04-28 07:01:00,
2013-04-28 03:06:00,53.4,53.0,30.16,NW,319,0.0,0.0,98,0.00,,OVC090,0.00,VWS V14.00,2013-04-28 07:06:00,
2013-04-28 03:11:00,53.4,53.0,30.16,NW,319,0.0,0.0,99,0.00,,OVC090,0.00,VWS V14.00,2013-04-28 07:11:00,
2013-04-28 03:16:00,53.4,53.1,30.16,NW,319,0.0,0.0,99,0.00,,OVC090,0.00,VWS V14.00,2013-04-28 07:16:00,
2013-04-28 03:21:00,53.3,53.0,30.16,NW,319,0.0,0.0,99,0.00,,OVC090,0.00,VWS V14.00,2013-04-28 07:21:00,
2013-04-28 03:26:00,53.5,53.2,30.16,NW,319,0.0,0.0,99,0.00,,OVC090,0.00,VWS V14.00,2013-04-28 07:26:00,
2013-04-28 03:31:00,53.3,52.9,30.16,NW,319,0.0,0.0,99,0.00,,OVC090,0.00,VWS V14.00,2013-04-28 07:31:00,
2013-04-28 03:36:00,54.2,53.8,30.16,NW,319,0.0,0.0,98,0.00,,OVC090,0.00,VWS V14.00,2013-04-28 07:36:00,
2013-04-28 03:41:00,53.9,53.5,30.16,NW,319,0.0,0.0,98,0.00,,OVC090,0.00,VWS V14.00,2013-04-28 07:41:00,
2013-04-28 03:46:00,54.1,53.7,30.16,NW,319,0.0,0.0,99,0.00,,OVC070,0.00,VWS V14.00,2013-04-28 07:46:00,
2013-04-28 03:51:00,53.7,53.3,30.15,NW,319,0.0,0.0,99,0.00,,OVC070,0.00,VWS V14.00,2013-04-28 07:51:00,
2013-04-28 03:56:00,53.7,53.3,30.15,NW,319,0.0,0.0,98,0.00,,OVC070,0.00,VWS V14.00,2013-04-28 07:56:00,
2013-04-28 04:01:00,53.8,53.4,30.15,NW,319,0.0,0.0,98,0.00,,OVC070,0.00,VWS V14.00,2013-04-28 08:01:00,
2013-04-28 04:06:00,54.0,53.6,30.16,NW,319,0.0,0.0,99,0.00,,OVC070,0.00,VWS V14.00,2013-04-28 08:06:00,
2013-04-28 04:11:00,54.0,53.7,30.15,NW,319,0.0,0.0,99,0.00,,OVC070,0.00,VWS V14.00,2013-04-28 08:11:00,
2013-04-28 04:16:00,53.3,53.1,30.15,NW,319,0.0,0.0,99,0.00,,OVC070,0.00,VWS V14.00,2013-04-28 08:16:00,
2013-04-28 04:21:00,53.6,53.4,30.15,NW,319,0.0,0.0,99,0.00,,OVC070,0.00,VWS V14.00,2013-04-28 08:21:00,
2013-04-28 04:26:00,54.3,54.2,30.16,NW,319,0.0,0.0,100,0.00,,OVC070,0.00,VWS V14.00,2013-04-28 08:26:00,
2013-04-28 04:31:00,53.8,53.8,30.16,NW,319,0.0,0.0,100,0.00,,OVC070,0.00,VWS V14.00,2013-04-28 08:31:00,
2013-04-28 04:36:00,53.5,53.5,30.16,NW,319,0.0,0.0,100,0.00,,OVC070,0.00,VWS V14.00,2013-04-28 08:36:00,
2013-04-28 04:41:00,53.7,53.7,30.16,NW,319,0.0,0.0,100,0.00,,OVC070,0.00,VWS V14.00,2013-04-28 08:41:00,
2013-04-28 04:46:00,52.8,52.8,30.16,NW,319,0.0,0.0,100,0.00,,-RA,0.00,VWS V14.00,2013-04-28 08:46:00,
2013-04-28 04:51:00,53.3,53.3,30.15,NW,319,0.0,0.0,100,0.00,,-RA,0.00,VWS V14.00,2013-04-28 08:51:00,
2013-04-28 04:56:00,53.2,53.2,30.15,NW,319,0.0,0.0,100,0.00,,-RA,0.00,VWS V14.00,2013-04-28 08:56:00,
2013-04-28 05:01:00,53.4,53.4,30.15,NW,319,0.0,0.0,100,0.00,,-RA,0.00,VWS V14.00,2013-04-28 09:01:00,
2013-04-28 05:06:00,52.9,52.9,30.16,NW,319,0.0,0.0,100,0.01,,-RA,0.00,VWS V14.00,2013-04-28 09:06:00,
2013-04-28 05:11:00,52.9,52.9,30.16,NW,319,0.0,0.0,100,0.01,,-RA,0.01,VWS V14.00,2013-04-28 09:11:00,
2013-04-28 05:16:00,53.0,53.0,30.16,NW,319,0.0,0.0,100,0.01,,-RA,0.01,VWS V14.00,2013-04-28 09:16:00,
2013-04-28 05:21:00,52.8,52.8,30.16,NW,319,0.0,0.0,100,0.01,,-RA,0.01,VWS V14.00,2013-04-28 09:21:00,
2013-04-28 05:26:00,53.1,53.1,30.16,NW,319,0.0,0.0,100,0.01,,-RA,0.01,VWS V14.00,2013-04-28 09:26:00,
2013-04-28 05:31:00,52.9,52.9,30.16,NW,319,0.0,0.0,100,0.01,,-RA,0.01,VWS V14.00,2013-04-28 09:31:00,
2013-04-28 05:36:00,52.7,52.7,30.16,NW,319,0.0,0.0,100,0.01,,-RA,0.01,VWS V14.00,2013-04-28 09:36:00,
2013-04-28 05:41:00,53.3,53.3,30.16,NW,319,0.0,0.0,100,0.01,,-RA,0.01,VWS V14.00,2013-04-28 09:41:00,
2013-04-28 05:46:00,52.8,52.8,30.16,NW,319,0.0,0.0,100,0.01,,-RA,0.02,VWS V14.00,2013-04-28 09:46:00,
2013-04-28 05:51:00,53.0,53.0,30.16,NW,319,0.0,0.0,100,0.02,,-RA,0.03,VWS V14.00,2013-04-28 09:51:00,
2013-04-28 05:56:00,53.0,53.0,30.17,NW,319,0.0,0.0,100,0.02,,-RA,0.03,VWS V14.00,2013-04-28 09:56:00,
2013-04-28 06:01:00,52.4,52.4,30.17,NW,319,0.0,0.0,100,0.02,,-RA,0.03,VWS V14.00,2013-04-28 10:01:00,
2013-04-28 06:06:00,52.3,52.3,30.16,NW,319,0.0,2.7,100,0.02,,-RA,0.03,VWS V14.00,2013-04-28 10:06:00,
2013-04-28 06:11:00,52.3,52.3,30.16,South,174,0.0,4.8,100,0.02,,-RA,0.03,VWS V14.00,2013-04-28 10:11:00,
2013-04-28 06:16:00,52.4,52.4,30.15,South,174,0.0,0.0,100,0.02,,-RA,0.03,VWS V14.00,2013-04-28 10:16:00,
2013-04-28 06:21:00,52.3,52.3,30.15,South,174,0.0,0.0,100,0.01,,-RA,0.03,VWS V14.00,2013-04-28 10:21:00,
2013-04-28 06:27:00,52.4,52.4,30.15,South,174,0.0,0.0,100,0.01,,-RA,0.03,VWS V14.00,2013-04-28 10:27:00,
2013-04-28 06:32:00,52.1,52.1,30.15,South,174,0.0,0.0,100,0.01,,-RA,0.03,VWS V14.00,2013-04-28 10:32:00,
2013-04-28 06:37:00,52.1,52.1,30.15,South,174,0.0,3.3,100,0.01,,-RA,0.03,VWS V14.00,2013-04-28 10:37:00,
2013-04-28 06:42:00,52.6,52.6,30.16,South,174,0.0,3.3,100,0.01,,-RA,0.03,VWS V14.00,2013-04-28 10:42:00,
2013-04-28 06:47:00,52.5,52.5,30.16,South,174,0.0,0.0,100,0.01,,OVC060,0.03,VWS V14.00,2013-04-28 10:47:00,
2013-04-28 06:52:00,52.2,52.2,30.16,South,174,0.0,0.0,100,0.01,,OVC060,0.03,VWS V14.00,2013-04-28 10:52:00,
2013-04-28 06:57:00,52.8,52.8,30.17,South,174,0.0,3.2,100,0.01,,OVC060,0.03,VWS V14.00,2013-04-28 10:57:00,
2013-04-28 07:02:00,51.9,51.9,30.17,SSE,159,0.0,0.0,100,0.01,,OVC060,0.03,VWS V14.00,2013-04-28 11:02:00,
2013-04-28 07:07:00,52.0,52.0,30.17,SSE,159,0.0,0.0,100,0.01,,OVC060,0.03,VWS V14.00,2013-04-28 11:07:00,
2013-04-28 07:12:00,52.2,52.2,30.18,SSE,159,0.0,0.0,100,0.01,,OVC060,0.03,VWS V14.00,2013-04-28 11:12:00,
2013-04-28 07:17:00,52.0,52.0,30.18,South,186,0.0,0.0,100,0.01,,OVC060,0.03,VWS V14.00,2013-04-28 11:17:00,
2013-04-28 07:22:00,51.9,51.9,30.18,South,186,0.0,0.0,100,0.01,,OVC060,0.03,VWS V14.00,2013-04-28 11:22:00,
2013-04-28 07:27:00,51.9,51.9,30.18,SSW,201,0.0,2.9,100,0.00,,OVC060,0.03,VWS V14.00,2013-04-28 11:27:00,
2013-04-28 07:32:00,52.0,52.0,30.17,SSW,201,0.0,0.0,100,0.00,,OVC060,0.03,VWS V14.00,2013-04-28 11:32:00,
2013-04-28 07:37:00,52.0,52.0,30.17,SSW,201,0.0,0.0,100,0.00,,OVC060,0.03,VWS V14.00,2013-04-28 11:37:00,
2013-04-28 07:42:00,52.0,52.0,30.16,SSW,201,0.0,0.0,100,0.00,,OVC060,0.03,VWS V14.00,2013-04-28 11:42:00,
2013-04-28 07:47:00,52.0,52.0,30.16,SSW,201,0.0,0.0,100,0.00,,OVC070,0.03,VWS V14.00,2013-04-28 11:47:00,
2013-04-28 07:52:00,52.3,52.3,30.15,SSW,201,0.0,0.0,100,0.00,,OVC070,0.03,VWS V14.00,2013-04-28 11:52:00,
2013-04-28 07:57:00,52.0,52.0,30.16,SE,142,0.0,3.5,100,0.00,,OVC070,0.03,VWS V14.00,2013-04-28 11:57:00,
2013-04-28 08:02:00,51.8,51.8,30.16,SE,142,0.0,0.0,100,0.00,,OVC070,0.03,VWS V14.00,2013-04-28 12:02:00,
2013-04-28 08:07:00,51.8,51.8,30.17,East,84,0.0,5.3,100,0.00,,OVC070,0.03,VWS V14.00,2013-04-28 12:07:00,
2013-04-28 08:12:00,52.0,52.0,30.17,SW,214,0.0,9.3,100,0.00,,OVC070,0.03,VWS V14.00,2013-04-28 12:12:00,
2013-04-28 08:17:00,51.4,51.4,30.18,South,179,0.0,0.0,100,0.00,,OVC070,0.03,VWS V14.00,2013-04-28 12:17:00,
2013-04-28 08:22:00,51.9,51.9,30.18,SSW,210,0.0,5.0,100,0.00,,OVC070,0.03,VWS V14.00,2013-04-28 12:22:00,
2013-04-28 08:27:00,51.9,51.9,30.18,SSW,210,0.0,5.0,100,0.00,,OVC070,0.03,VWS V14.00,2013-04-28 12:27:00,
2013-04-28 08:32:00,51.8,51.8,30.17,South,173,0.0,3.0,100,0.00,,OVC070,0.03,VWS V14.00,2013-04-28 12:32:00,
2013-04-28 08:37:00,51.9,51.9,30.17,SSW,195,0.0,4.3,100,0.00,,OVC070,0.03,VWS V14.00,2013-04-28 12:37:00,
2013-04-28 08:42:00,52.1,52.1,30.18,SW,224,0.0,4.7,100,0.00,,OVC070,0.03,VWS V14.00,2013-04-28 12:42:00,
2013-04-28 08:47:00,52.6,52.6,30.17,SW,224,0.0,0.0,100,0.00,,OVC070,0.03,VWS V14.00,2013-04-28 12:47:00,
2013-04-28 08:52:00,52.1,52.1,30.17,SW,224,0.0,3.1,100,0.00,,OVC070,0.03,VWS V14.00,2013-04-28 12:52:00,
2013-04-28 08:57:00,52.4,52.4,30.17,SSW,207,6.2,6.2,100,0.00,,OVC070,0.03,VWS V14.00,2013-04-28 12:57:00,
2013-04-28 09:02:00,52.2,52.2,30.17,SSE,158,0.0,0.0,100,0.00,,OVC060,0.03,VWS V14.00,2013-04-28 13:02:00,
2013-04-28 09:07:00,52.2,52.2,30.17,South,187,0.0,7.3,100,0.00,,OVC060,0.03,VWS V14.00,2013-04-28 13:07:00,
2013-04-28 09:12:00,52.9,52.9,30.17,South,186,0.0,7.3,100,0.00,,OVC060,0.03,VWS V14.00,2013-04-28 13:12:00,
2013-04-28 09:17:00,53.0,53.0,30.17,SSE,148,0.0,3.5,100,0.00,,OVC060,0.03,VWS V14.00,2013-04-28 13:17:00,
2013-04-28 09:22:00,52.7,52.7,30.17,SSE,148,0.0,3.5,100,0.00,,OVC060,0.03,VWS V14.00,2013-04-28 13:22:00,
2013-04-28 09:27:00,52.7,52.7,30.17,SSE,148,0.0,3.5,100,0.00,,OVC060,0.03,VWS V14.00,2013-04-28 13:27:00,
2013-04-28 09:32:00,53.2,53.2,30.17,SSE,148,0.0,0.0,100,0.00,,OVC060,0.03,VWS V14.00,2013-04-28 13:32:00,
2013-04-28 09:37:00,53.0,52.9,30.18,South,172,0.0,6.0,100,0.00,,OVC060,0.03,VWS V14.00,2013-04-28 13:37:00,
2013-04-28 09:42:00,53.3,53.1,30.18,South,172,0.0,6.0,99,0.00,,OVC060,0.03,VWS V14.00,2013-04-28 13:42:00,
2013-04-28 09:47:00,53.2,53.1,30.17,South,172,0.0,0.0,100,0.00,,OVC065,0.03,VWS V14.00,2013-04-28 13:47:00,
2013-04-28 09:52:00,53.2,53.0,30.17,South,172,0.0,0.0,99,0.00,,OVC065,0.03,VWS V14.00,2013-04-28 13:52:00,
2013-04-28 09:57:00,53.6,53.2,30.17,SSW,210,3.4,4.4,98,0.00,,OVC065,0.03,VWS V14.00,2013-04-28 13:57:00,
2013-04-28 10:02:00,53.2,52.6,30.17,South,172,0.0,0.0,98,0.00,,OVC065,0.03,VWS V14.00,2013-04-28 14:02:00,
2013-04-28 10:07:00,54.3,53.8,30.16,South,172,0.0,0.0,98,0.00,,OVC065,0.03,VWS V14.00,2013-04-28 14:07:00,
2013-04-28 10:12:00,54.1,53.3,30.17,SSW,202,3.3,5.9,97,0.00,,OVC065,0.03,VWS V14.00,2013-04-28 14:12:00,
2013-04-28 10:17:00,55.2,54.2,30.16,SW,232,3.2,4.1,96,0.00,,OVC065,0.03,VWS V14.00,2013-04-28 14:17:00,
2013-04-28 10:22:00,53.0,51.8,30.16,South,176,0.0,4.5,96,0.00,,OVC065,0.03,VWS V14.00,2013-04-28 14:22:00,
2013-04-28 10:27:00,54.6,53.3,30.16,SSW,195,0.0,6.1,95,0.00,,OVC065,0.03,VWS V14.00,2013-04-28 14:27:00,
2013-04-28 10:32:00,54.4,53.0,30.16,SSE,149,0.0,2.6,95,0.00,,OVC065,0.03,VWS V14.00,2013-04-28 14:32:00,
2013-04-28 10:37:00,54.3,52.9,30.16,South,179,4.5,4.5,95,0.00,,OVC065,0.03,VWS V14.00,2013-04-28 14:37:00,
2013-04-28 10:42:00,54.8,53.4,30.16,South,188,0.0,5.2,95,0.00,,OVC065,0.03,VWS V14.00,2013-04-28 14:42:00,
2013-04-28 10:47:00,55.1,53.7,30.16,South,188,0.0,0.0,95,0.00,,OVC065,0.03,VWS V14.00,2013-04-28 14:47:00,
2013-04-28 10:52:00,55.6,54.1,30.17,South,188,0.0,0.0,95,0.00,,OVC065,0.03,VWS V14.00,2013-04-28 14:52:00,
2013-04-28 10:57:00,54.9,53.3,30.17,South,188,0.0,0.0,94,0.00,,OVC065,0.03,VWS V14.00,2013-04-28 14:57:00,
2013-04-28 11:02:00,55.9,54.6,30.17,South,188,0.0,0.0,96,0.00,,OVC065,0.03,VWS V14.00,2013-04-28 15:02:00,
2013-04-28 11:07:00,55.3,53.9,30.17,South,188,0.0,0.0,95,0.00,,OVC065,0.03,VWS V14.00,2013-04-28 15:07:00,
2013-04-28 11:12:00,55.8,54.6,30.18,South,188,0.0,0.0,96,0.00,,OVC065,0.03,VWS V14.00,2013-04-28 15:12:00,
2013-04-28 11:17:00,55.2,54.0,30.18,South,188,0.0,0.0,96,0.00,,OVC065,0.03,VWS V14.00,2013-04-28 15:17:00,
2013-04-28 11:22:00,55.6,54.7,30.18,South,188,0.0,0.0,97,0.00,,OVC065,0.03,VWS V14.00,2013-04-28 15:22:00,
2013-04-28 11:27:00,55.9,55.3,30.18,South,188,0.0,0.0,98,0.00,,OVC065,0.03,VWS V14.00,2013-04-28 15:27:00,
2013-04-28 11:32:00,55.3,54.8,30.17,South,188,0.0,0.0,98,0.00,,OVC065,0.03,VWS V14.00,2013-04-28 15:32:00,
2013-04-28 11:37:00,55.6,55.2,30.17,South,188,0.0,0.0,99,0.00,,OVC065,0.03,VWS V14.00,2013-04-28 15:37:00,
2013-04-28 11:42:00,55.3,55.2,30.17,South,188,0.0,0.0,100,0.00,,OVC065,0.03,VWS V14.00,2013-04-28 15:42:00,
2013-04-28 11:47:00,55.5,55.5,30.16,South,188,0.0,0.0,100,0.00,,-RA,0.03,VWS V14.00,2013-04-28 15:47:00,
2013-04-28 11:52:00,54.0,54.0,30.16,South,188,0.0,0.0,100,0.00,,-RA,0.03,VWS V14.00,2013-04-28 15:52:00,
2013-04-28 11:57:00,53.5,53.5,30.16,South,188,0.0,0.0,100,0.00,,-RA,0.03,VWS V14.00,2013-04-28 15:57:00,
2013-04-28 12:02:00,53.4,53.4,30.16,South,188,0.0,0.0,100,0.00,,RA,0.03,VWS V14.00,2013-04-28 16:02:00,
2013-04-28 12:07:00,53.8,53.8,30.15,South,188,0.0,0.0,100,0.00,,RA,0.03,VWS V14.00,2013-04-28 16:07:00,
2013-04-28 12:12:00,53.4,53.4,30.16,South,188,0.0,0.0,100,0.00,,RA,0.03,VWS V14.00,2013-04-28 16:12:00,
2013-04-28 12:17:00,53.5,53.5,30.16,South,188,0.0,0.0,100,0.00,,RA,0.03,VWS V14.00,2013-04-28 16:17:00,
2013-04-28 12:22:00,53.3,53.3,30.16,ENE,77,0.0,2.8,100,0.00,,RA,0.03,VWS V14.00,2013-04-28 16:22:00,
2013-04-28 12:27:00,53.1,53.1,30.16,ENE,77,0.0,2.8,100,0.00,,RA,0.03,VWS V14.00,2013-04-28 16:27:00,
2013-04-28 12:32:00,53.6,53.6,30.15,ENE,77,0.0,0.0,100,0.00,,RA,0.03,VWS V14.00,2013-04-28 16:32:00,
2013-04-28 12:37:00,53.5,53.5,30.15,ENE,77,0.0,0.0,100,0.00,,RA,0.03,VWS V14.00,2013-04-28 16:37:00,
2013-04-28 12:42:00,53.9,53.9,30.15,ENE,77,0.0,0.0,100,0.00,,RA,0.03,VWS V14.00,2013-04-28 16:42:00,
2013-04-28 12:47:00,54.4,54.4,30.15,ESE,110,0.0,0.0,100,0.00,,-RA,0.03,VWS V14.00,2013-04-28 16:47:00,
2013-04-28 12:52:00,53.3,53.3,30.15,ESE,110,0.0,0.0,100,0.00,,-RA,0.03,VWS V14.00,2013-04-28 16:52:00,
2013-04-28 12:57:00,53.4,53.4,30.15,ESE,110,0.0,0.0,100,0.00,,-RA,0.03,VWS V14.00,2013-04-28 16:57:00,
2013-04-28 13:02:00,53.6,53.6,30.15,ESE,110,0.0,0.0,100,0.00,,-RA,0.03,VWS V14.00,2013-04-28 17:02:00,
2013-04-28 13:07:00,53.7,53.7,30.15,ESE,110,0.0,0.0,100,0.00,,-RA,0.03,VWS V14.00,2013-04-28 17:07:00,
2013-04-28 13:12:00,53.5,53.5,30.15,ESE,110,0.0,0.0,100,0.00,,-RA,0.03,VWS V14.00,2013-04-28 17:12:00,
2013-04-28 13:17:00,53.3,53.3,30.15,ESE,110,0.0,0.0,100,0.00,,-RA,0.03,VWS V14.00,2013-04-28 17:17:00,
2013-04-28 13:22:00,53.6,53.6,30.15,ESE,110,0.0,0.0,100,0.00,,-RA,0.03,VWS V14.00,2013-04-28 17:22:00,
2013-04-28 13:27:00,53.9,53.9,30.14,ESE,110,0.0,0.0,100,0.00,,-RA,0.03,VWS V14.00,2013-04-28 17:27:00,
2013-04-28 13:32:00,53.8,53.8,30.14,NNE,15,0.0,0.0,100,0.00,,-RA,0.03,VWS V14.00,2013-04-28 17:32:00,
2013-04-28 13:37:00,53.5,53.5,30.14,East,83,0.0,5.7,100,0.02,,-RA,0.06,VWS V14.00,2013-04-28 17:37:00,
2013-04-28 13:42:00,52.4,52.4,30.14,ENE,73,3.0,6.6,100,0.04,,-RA,0.07,VWS V14.00,2013-04-28 17:42:00,
2013-04-28 13:47:00,52.7,52.7,30.14,East,86,0.0,3.0,100,0.03,,-RA,0.07,VWS V14.00,2013-04-28 17:47:00,
2013-04-28 13:52:00,52.9,52.9,30.14,East,86,0.0,3.0,100,0.03,,-RA,0.07,VWS V14.00,2013-04-28 17:52:00,
2013-04-28 13:57:00,52.7,52.7,30.15,East,86,0.0,3.0,100,0.03,,-RA,0.07,VWS V14.00,2013-04-28 17:57:00,
2013-04-28 14:02:00,53.0,53.0,30.14,East,86,0.0,0.0,100,0.03,,RA,0.07,VWS V14.00,2013-04-28 18:02:00,
2013-04-28 14:07:00,52.8,52.8,30.14,East,93,0.0,3.5,100,0.04,,RA,0.10,VWS V14.00,2013-04-28 18:07:00,
2013-04-28 14:12:00,52.4,52.4,30.14,ESE,118,7.3,7.3,100,0.07,,RA,0.12,VWS V14.00,2013-04-28 18:12:00,
2013-04-28 14:17:00,52.0,52.0,30.14,SSE,152,0.0,0.0,100,0.07,,RA,0.13,VWS V14.00,2013-04-28 18:17:00,
2013-04-28 14:22:00,52.1,52.1,30.15,SSE,152,0.0,0.0,100,0.07,,RA,0.13,VWS V14.00,2013-04-28 18:22:00,
2013-04-28 14:27:00,52.6,52.6,30.15,SSE,152,0.0,0.0,100,0.06,,RA,0.13,VWS V14.00,2013-04-28 18:27:00,
2013-04-28 14:32:00,52.7,52.7,30.15,SSE,152,0.0,0.0,100,0.07,,RA,0.14,VWS V14.00,2013-04-28 18:32:00,
2013-04-28 14:37:00,52.3,52.3,30.14,ENE,75,0.0,4.8,100,0.08,,RA,0.16,VWS V14.00,2013-04-28 18:37:00,
2013-04-28 14:42:00,52.8,52.8,30.14,ENE,75,0.0,4.8,100,0.08,,RA,0.17,VWS V14.00,2013-04-28 18:42:00,
2013-04-28 14:47:00,52.2,52.2,30.14,East,90,0.0,4.8,100,0.09,,RA,0.18,VWS V14.00,2013-04-28 18:47:00,
2013-04-28 14:52:00,52.5,52.5,30.13,East,86,0.0,4.9,100,0.09,,RA,0.19,VWS V14.00,2013-04-28 18:52:00,
2013-04-28 14:57:00,52.0,52.0,30.13,North,1,0.0,4.9,100,0.09,,RA,0.20,VWS V14.00,2013-04-28 18:57:00,
2013-04-28 15:02:00,52.0,52.0,30.13,ESE,118,0.0,0.0,100,0.08,,RA,0.20,VWS V14.00,2013-04-28 19:02:00,
2013-04-28 15:07:00,51.7,51.7,30.12,East,98,0.0,4.8,100,0.08,,RA,0.20,VWS V14.00,2013-04-28 19:07:00,
2013-04-28 15:12:00,51.8,51.8,30.12,SSE,152,0.0,6.3,100,0.08,,RA,0.21,VWS V14.00,2013-04-28 19:12:00,
2013-04-28 15:17:00,52.0,52.0,30.12,ESE,120,0.0,0.0,100,0.08,,RA,0.23,VWS V14.00,2013-04-28 19:17:00,
2013-04-28 15:22:00,51.6,51.6,30.12,SE,125,0.0,6.4,100,0.10,,RA,0.24,VWS V14.00,2013-04-28 19:22:00,
2013-04-28 15:27:00,51.7,51.7,30.11,East,96,0.0,6.4,100,0.09,,RA,0.24,VWS V14.00,2013-04-28 19:27:00,
2013-04-28 15:32:00,51.5,51.5,30.11,East,96,0.0,0.0,100,0.08,,RA,0.24,VWS V14.00,2013-04-28 19:32:00,
2013-04-28 15:37:00,52.1,52.1,30.10,ESE,117,4.2,7.2,100,0.08,,RA,0.24,VWS V14.00,2013-04-28 19:37:00,
2013-04-28 15:42:00,52.1,52.1,30.10,ESE,117,0.0,7.2,100,0.09,,RA,0.26,VWS V14.00,2013-04-28 19:42:00,
2013-04-28 15:47:00,52.0,52.0,30.10,East,91,0.0,2.6,100,0.09,, +RA,0.28,VWS V14.00,2013-04-28 19:47:00,
2013-04-28 15:52:00,51.9,51.9,30.10,East,91,0.0,2.6,100,0.11,, +RA,0.30,VWS V14.00,2013-04-28 19:52:00,
2013-04-28 15:57:00,51.6,51.6,30.11,East,91,0.0,2.6,100,0.10,, +RA,0.30,VWS V14.00,2013-04-28 19:57:00,
2013-04-28 16:02:00,51.9,51.9,30.11,East,91,0.0,0.0,100,0.10,,RA,0.30,VWS V14.00,2013-04-28 20:02:00,
2013-04-28 16:07:00,52.0,52.0,30.11,East,91,0.0,0.0,100,0.12,,RA,0.33,VWS V14.00,2013-04-28 20:07:00,
2013-04-28 16:12:00,52.0,52.0,30.10,East,91,0.0,0.0,100,0.14,,RA,0.36,VWS V14.00,2013-04-28 20:12:00,
2013-04-28 16:17:00,51.3,51.3,30.10,ESE,121,0.0,2.4,100,0.13,,RA,0.37,VWS V14.00,2013-04-28 20:17:00,
2013-04-28 16:22:00,51.4,51.4,30.09,ESE,104,6.3,7.8,100,0.12,,RA,0.37,VWS V14.00,2013-04-28 20:22:00,
2013-04-28 16:27:00,51.6,51.6,30.09,North,359,0.0,7.8,100,0.12,,RA,0.38,VWS V14.00,2013-04-28 20:27:00,
2013-04-28 16:32:00,51.3,51.3,30.09,East,93,0.0,0.0,100,0.13,,RA,0.40,VWS V14.00,2013-04-28 20:32:00,
2013-04-28 16:37:00,51.4,51.4,30.08,ESE,112,0.0,4.4,100,0.13,,RA,0.41,VWS V14.00,2013-04-28 20:37:00,
2013-04-28 16:42:00,51.2,51.2,30.08,ESE,112,0.0,4.4,100,0.12,,RA,0.41,VWS V14.00,2013-04-28 20:42:00,
2013-04-28 16:47:00,51.2,51.2,30.08,ESE,112,0.0,0.0,100,0.11,,RA,0.41,VWS V14.00,2013-04-28 20:47:00,
2013-04-28 16:52:00,51.2,51.2,30.09,ESE,112,0.0,0.0,100,0.11,,RA,0.43,VWS V14.00,2013-04-28 20:52:00,
2013-04-28 16:57:00,51.2,51.2,30.09,ESE,112,0.0,0.0,100,0.12,,RA,0.44,VWS V14.00,2013-04-28 20:57:00,
2013-04-28 17:02:00,51.1,51.1,30.10,ESE,112,0.0,0.0,100,0.11,,RA,0.44,VWS V14.00,2013-04-28 21:02:00,
2013-04-28 17:07:00,51.0,51.0,30.09,ESE,112,0.0,0.0,100,0.10,,RA,0.44,VWS V14.00,2013-04-28 21:07:00,
2013-04-28 17:12:00,51.2,51.2,30.08,ESE,112,0.0,0.0,100,0.11,,RA,0.46,VWS V14.00,2013-04-28 21:12:00,
2013-04-28 17:17:00,51.1,51.1,30.09,ESE,112,0.0,0.0,100,0.12,,RA,0.47,VWS V14.00,2013-04-28 21:17:00,
2013-04-28 17:22:00,51.2,51.2,30.09,ESE,112,0.0,0.0,100,0.12,,RA,0.48,VWS V14.00,2013-04-28 21:22:00,
2013-04-28 17:27:00,51.1,51.1,30.09,ESE,112,0.0,0.0,100,0.11,,RA,0.48,VWS V14.00,2013-04-28 21:27:00,
2013-04-28 17:32:00,51.1,51.1,30.10,ESE,112,0.0,0.0,100,0.10,,RA,0.48,VWS V14.00,2013-04-28 21:32:00,
2013-04-28 17:37:00,51.1,51.1,30.09,ESE,112,0.0,0.0,100,0.14,,RA,0.54,VWS V14.00,2013-04-28 21:37:00,
2013-04-28 17:42:00,50.9,50.9,30.09,ESE,112,0.0,0.0,100,0.16,,RA,0.56,VWS V14.00,2013-04-28 21:42:00,
2013-04-28 17:47:00,51.1,51.1,30.09,ESE,112,0.0,0.0,100,0.14,, +RA,0.56,VWS V14.00,2013-04-28 21:47:00,
2013-04-28 17:52:00,51.2,51.2,30.08,ESE,112,0.0,0.0,100,0.13,, +RA,0.56,VWS V14.00,2013-04-28 21:52:00,
2013-04-28 17:57:00,51.2,51.2,30.08,ESE,112,0.0,0.0,100,0.12,, +RA,0.56,VWS V14.00,2013-04-28 21:57:00,
2013-04-28 18:02:00,51.3,51.3,30.08,ESE,112,0.0,0.0,100,0.13,,RA,0.58,VWS V14.00,2013-04-28 22:02:00,
2013-04-28 18:07:00,51.2,51.2,30.08,ESE,112,0.0,0.0,100,0.14,,RA,0.60,VWS V14.00,2013-04-28 22:07:00,
2013-04-28 18:12:00,51.1,51.1,30.08,ESE,112,0.0,0.0,100,0.13,,RA,0.60,VWS V14.00,2013-04-28 22:12:00,
2013-04-28 18:17:00,51.1,51.1,30.08,ESE,112,0.0,0.0,100,0.12,,RA,0.60,VWS V14.00,2013-04-28 22:17:00,
2013-04-28 18:22:00,51.0,51.0,30.08,ESE,112,0.0,0.0,100,0.12,,RA,0.61,VWS V14.00,2013-04-28 22:22:00,
2013-04-28 18:27:00,51.0,51.0,30.07,ESE,112,0.0,0.0,100,0.13,,RA,0.63,VWS V14.00,2013-04-28 22:27:00,
2013-04-28 18:32:00,50.9,50.9,30.07,ESE,112,0.0,0.0,100,0.13,,RA,0.64,VWS V14.00,2013-04-28 22:32:00,
2013-04-28 18:37:00,50.8,50.8,30.07,ESE,112,0.0,0.0,100,0.12,,RA,0.64,VWS V14.00,2013-04-28 22:37:00,
2013-04-28 18:42:00,51.0,51.0,30.08,ESE,112,0.0,0.0,100,0.11,,RA,0.64,VWS V14.00,2013-04-28 22:42:00,
2013-04-28 18:47:00,51.0,51.0,30.08,ESE,112,0.0,0.0,100,0.13,,RA,0.67,VWS V14.00,2013-04-28 22:47:00,
2013-04-28 18:52:00,50.8,50.8,30.08,ESE,112,0.0,0.0,100,0.13,,RA,0.68,VWS V14.00,2013-04-28 22:52:00,
2013-04-28 18:57:00,51.2,51.2,30.08,ESE,112,0.0,0.0,100,0.12,,RA,0.68,VWS V14.00,2013-04-28 22:57:00,
2013-04-28 19:02:00,51.1,51.1,30.08,ESE,112,0.0,0.0,100,0.11,, +RA,0.68,VWS V14.00,2013-04-28 23:02:00,
2013-04-28 19:07:00,51.1,51.1,30.07,ESE,112,0.0,0.0,100,0.11,, +RA,0.70,VWS V14.00,2013-04-28 23:07:00,
2013-04-28 19:12:00,51.1,51.1,30.07,SE,139,4.5,4.5,100,0.12,, +RA,0.72,VWS V14.00,2013-04-28 23:12:00,
2013-04-28 19:17:00,51.1,51.1,30.06,SE,135,0.0,8.8,100,0.12,, +RA,0.72,VWS V14.00,2013-04-28 23:17:00,
2013-04-28 19:22:00,51.0,51.0,30.06,East,89,0.0,8.8,100,0.11,, +RA,0.72,VWS V14.00,2013-04-28 23:22:00,
2013-04-28 19:27:00,50.9,50.9,30.06,SE,145,0.0,8.8,100,0.12,, +RA,0.74,VWS V14.00,2013-04-28 23:27:00,
2013-04-28 19:32:00,51.0,51.0,30.06,ESE,104,0.0,8.5,100,0.13,, +RA,0.76,VWS V14.00,2013-04-28 23:32:00,
2013-04-28 19:37:00,51.0,51.0,30.06,SE,131,9.8,11.5,100,0.12,, +RA,0.76,VWS V14.00,2013-04-28 23:37:00,
2013-04-28 19:42:00,51.0,51.0,30.06,SE,141,8.8,13.0,100,0.11,, +RA,0.76,VWS V14.00,2013-04-28 23:42:00,
2013-04-28 19:47:00,50.9,50.9,30.06,ESE,114,0.0,8.3,100,0.11,,-RA,0.77,VWS V14.00,2013-04-28 23:47:00,
2013-04-28 19:52:00,51.2,51.2,30.05,East,101,0.0,8.3,100,0.10,,-RA,0.77,VWS V14.00,2013-04-28 23:52:00,
2013-04-28 19:57:00,51.0,51.0,30.06,SE,134,0.0,8.3,100,0.09,,-RA,0.77,VWS V14.00,2013-04-28 23:57:00,
2013-04-28 20:02:00,51.1,51.1,30.05,SSE,167,0.0,8.1,100,0.09,,-RA,0.77,VWS V14.00,2013-04-29 00:02:00,
2013-04-28 20:07:00,51.0,51.0,30.05,ESE,117,3.3,8.9,100,0.08,,-RA,0.77,VWS V14.00,2013-04-29 00:07:00,
2013-04-28 20:12:00,51.0,51.0,30.05,ESE,108,0.0,8.9,100,0.08,,-RA,0.78,VWS V14.00,2013-04-29 00:12:00,
2013-04-28 20:17:00,51.0,51.0,30.05,SSE,148,4.7,8.0,100,0.08,,-RA,0.78,VWS V14.00,2013-04-29 00:17:00,
2013-04-28 20:22:00,50.9,50.9,30.05,SE,134,2.9,8.0,100,0.07,,-RA,0.78,VWS V14.00,2013-04-29 00:22:00,
2013-04-28 20:27:00,50.8,50.8,30.05,ESE,122,6.1,9.6,100,0.07,,-RA,0.79,VWS V14.00,2013-04-29 00:27:00,
2013-04-28 20:32:00,50.9,50.9,30.05,SE,135,0.0,0.0,100,0.07,,-RA,0.80,VWS V14.00,2013-04-29 00:32:00,
2013-04-28 20:37:00,51.1,51.1,30.05,SE,141,0.0,4.8,100,0.07,,-RA,0.80,VWS V14.00,2013-04-29 00:37:00,
2013-04-28 20:42:00,51.0,51.0,30.05,SSE,159,0.0,4.8,100,0.07,,-RA,0.80,VWS V14.00,2013-04-29 00:42:00,
2013-04-28 20:47:00,51.0,51.0,30.05,SSE,159,0.0,0.0,100,0.07,,-RA,0.81,VWS V14.00,2013-04-29 00:47:00,
2013-04-28 20:52:00,51.2,51.2,30.05,SE,145,4.8,4.8,100,0.07,,-RA,0.81,VWS V14.00,2013-04-29 00:52:00,
2013-04-28 20:57:00,51.4,51.4,30.05,SE,124,2.1,5.1,100,0.07,,-RA,0.82,VWS V14.00,2013-04-29 00:57:00,
2013-04-28 21:02:00,51.2,51.2,30.05,ESE,105,0.0,0.0,100,0.06,,-RA,0.82,VWS V14.00,2013-04-29 01:02:00,
2013-04-28 21:07:00,51.5,51.5,30.05,ESE,104,0.0,6.1,100,0.06,,-RA,0.83,VWS V14.00,2013-04-29 01:07:00,
2013-04-28 21:12:00,51.2,51.2,30.04,ESE,104,0.0,6.1,100,0.07,,-RA,0.84,VWS V14.00,2013-04-29 01:12:00,
2013-04-28 21:17:00,51.2,51.2,30.04,ESE,111,4.3,8.7,100,0.08,,-RA,0.85,VWS V14.00,2013-04-29 01:17:00,
2013-04-28 21:22:00,51.3,51.3,30.05,SE,129,0.0,8.7,100,0.07,,-RA,0.85,VWS V14.00,2013-04-29 01:22:00,
2013-04-28 21:27:00,51.7,51.7,30.04,SE,129,0.0,8.7,100,0.07,,-RA,0.85,VWS V14.00,2013-04-29 01:27:00,
2013-04-28 21:32:00,51.4,51.4,30.03,ESE,107,0.0,4.5,100,0.07,,-RA,0.86,VWS V14.00,2013-04-29 01:32:00,
2013-04-28 21:37:00,51.6,51.6,30.03,SSE,158,0.0,5.3,100,0.06,,-RA,0.86,VWS V14.00,2013-04-29 01:37:00,
2013-04-28 21:42:00,51.7,51.7,30.03,SSE,156,0.0,7.3,100,0.06,,-RA,0.86,VWS V14.00,2013-04-29 01:42:00,
2013-04-28 21:47:00,51.4,51.4,30.03,SSE,156,0.0,0.0,100,0.05,,-RA,0.86,VWS V14.00,2013-04-29 01:47:00,
2013-04-28 21:52:00,51.6,51.6,30.03,SSE,156,0.0,3.4,100,0.06,,-RA,0.87,VWS V14.00,2013-04-29 01:52:00,
2013-04-28 21:57:00,51.8,51.8,30.03,ESE,114,0.0,8.5,100,0.05,,-RA,0.87,VWS V14.00,2013-04-29 01:57:00,
2013-04-28 22:02:00,51.6,51.6,30.03,ESE,114,0.0,0.0,100,0.05,,-RA,0.87,VWS V14.00,2013-04-29 02:02:00,
2013-04-28 22:07:00,51.6,51.6,30.03,SE,145,0.0,4.2,100,0.05,,-RA,0.87,VWS V14.00,2013-04-29 02:07:00,
2013-04-28 22:12:00,51.4,51.4,30.03,South,174,0.0,4.2,100,0.04,,-RA,0.87,VWS V14.00,2013-04-29 02:12:00,
2013-04-28 22:17:00,51.5,51.5,30.03,SSE,159,0.0,4.3,100,0.05,,-RA,0.88,VWS V14.00,2013-04-29 02:17:00,
2013-04-28 22:22:00,51.8,51.8,30.03,SSE,159,0.0,4.3,100,0.04,,-RA,0.88,VWS V14.00,2013-04-29 02:22:00,
2013-04-28 22:27:00,51.9,51.9,30.03,SSE,159,0.0,4.3,100,0.04,,-RA,0.88,VWS V14.00,2013-04-29 02:27:00,
2013-04-28 22:32:00,51.8,51.8,30.03,SSE,159,0.0,0.0,100,0.04,,-RA,0.88,VWS V14.00,2013-04-29 02:32:00,
2013-04-28 22:37:00,51.5,51.5,30.03,SSE,159,0.0,0.0,100,0.04,,-RA,0.89,VWS V14.00,2013-04-29 02:37:00,
2013-04-28 22:42:00,51.8,51.8,30.03,South,186,0.0,3.5,100,0.04,,-RA,0.89,VWS V14.00,2013-04-29 02:42:00,
2013-04-28 22:47:00,51.8,51.8,30.03,South,191,0.0,3.0,100,0.04,,-RA,0.89,VWS V14.00,2013-04-29 02:47:00,
2013-04-28 22:52:00,51.9,51.9,30.03,SSW,205,0.0,5.9,100,0.03,,-RA,0.89,VWS V14.00,2013-04-29 02:52:00,
2013-04-28 22:57:00,51.9,51.9,30.02,SSW,205,0.0,5.9,100,0.05,,-RA,0.91,VWS V14.00,2013-04-29 02:57:00,
2013-04-28 23:02:00,51.7,51.7,30.02,SSW,205,0.0,0.0,100,0.06,,-RA,0.92,VWS V14.00,2013-04-29 03:02:00,
2013-04-28 23:07:00,51.8,51.8,30.02,SSW,205,0.0,0.0,100,0.05,,-RA,0.92,VWS V14.00,2013-04-29 03:07:00,
2013-04-28 23:12:00,52.4,52.4,30.02,SSW,205,0.0,3.2,100,0.05,,-RA,0.92,VWS V14.00,2013-04-29 03:12:00,
2013-04-28 23:17:00,52.2,52.2,30.02,SSW,205,0.0,0.0,100,0.04,,-RA,0.92,VWS V14.00,2013-04-29 03:17:00,
2013-04-28 23:22:00,51.9,51.9,30.02,SSW,205,0.0,4.3,100,0.06,,-RA,0.94,VWS V14.00,2013-04-29 03:22:00,
2013-04-28 23:27:00,52.0,52.0,30.02,SSW,205,0.0,4.3,100,0.06,,-RA,0.95,VWS V14.00,2013-04-29 03:27:00,